Location: Avully
(45.9633°N, 6.0228°E)
Time: 11:31:35
(UTC+00:00)

CRYOSAT 2 - Pass Details

Date: 23 May 2024
Orbit: 719 x 720 km, 92.0° (Epoch: 14 June)

Event Time Altitude Azimuth Distance (km) Brightness Sun altitude
Rises 01:59:51 0° 3° (N) 3,141 8.7 -15.5°
Reaches altitude 10° 02:02:09 10° 2° (N) 2,216 7.7 -15.3°
Maximum altitude 02:07:03 77° 277° (W) 744 4.3 -14.8°
Enters shadow 02:10:29 20° 194° (SSW) 1,647 5.7 -14.4°
